Location: Newark
(41.9364°N, 2.8061°E)
Time: 10:59:35
(UTC+00:00)

A-11 Canister half - Pass Details

Date: 19 February 2020
Orbit: 1516 x 1683 km, 47.2° (Epoch: 05 April)

Event Time Altitude Azimuth Distance (km) Brightness Sun altitude
Rises 23:08:54 0° 297° (WNW) 4,773 11.9 -57.1°
Reaches altitude 10° 23:12:09 10° 292° (WNW) 3,764 11.3 -57.3°
Enters shadow 23:12:47 12° 290° (WNW) 3,577 11.1 -57.4°
